Regional Weather Roundup
Issued by NWS

Home | Current Version | Previous Version | Text Only | Print | Product List | Glossary Off
Versions: 1 2 3 4 5 6 7 8 9 10 11 12 13 14 15 16 17 18 19 20 21 22 23 24 25 26 27 28 29 30 31 32 33 34 35 36 37 38 39 40 41 42 43 44 45 46 47 48 49 50

000
ASUS44 KMEG 210900
RWRTN
TENNESSEE HOURLY STATE WEATHER ROUNDUP
NATIONAL WEATHER SERVICE MEMPHIS TN
400 AM CDT SUN SEP 21 2014

TNZ002-004-019-021-049-052-054-088>092-211000-
WEST TENNESSEE

CITY           SKY/WX    TMP DP  RH WIND       PRES   REMARKS
MEMPHIS INTL   CLEAR     72  67  84 SW6       29.99F
NWS MEMPHIS      N/A     68 N/A N/A MISG        N/A
JACKSON        CLEAR     69  65  86 S7        29.99S
DYERSBURG      CLEAR     73  61  64 SW6       29.98F
UNION CITY     CLEAR     68  66  94 S5        29.95F
PARIS          CLEAR     66  64  94 SW6       29.97F
LEXINGTON        N/A     63  63 100 CALM      29.98S VSB 3/4
SAVANNAH       CLEAR     64  64 100 CALM      30.00S
$$

TNZ008-025-027-028-033-062-065-066-211000-
NORTH MIDDLE TENNESSEE

CITY           SKY/WX    TMP DP  RH WIND       PRES   REMARKS
NASHVILLE      PTCLDY    67  65  93 CALM      29.98R
CLARKSVILLE    CLEAR     70  66  87 SW5       29.95F
COOKEVILLE     CLEAR     63  61  94 S3        29.99F
CROSSVILLE     CLEAR     64  58  80 SW3       30.04F
$$

TNZ061-075-076-078-094-096-097-211000-
SOUTH MIDDLE TENNESSEE

CITY           SKY/WX    TMP DP  RH WIND       PRES   REMARKS
FAYETTEVILLE   CLEAR     63  61  94 SW3       30.02F
WINCHESTER     CLEAR     61  59  94 CALM      30.02F
SHELBYVILLE    CLEAR     64  63  94 S3        30.00F
$$

TNZ017-018-042-046-047-211000-
NORTHEAST TENNESSEE

CITY           SKY/WX    TMP DP  RH WIND       PRES   REMARKS
TRI CITIES     PTCLDY    56  54  93 CALM      30.01F
ELIZABETHTON   MOSUNNY   54  52  94 CALM      30.03S
$$

TNZ012-013-036-069-073-074-211000-
CENTRAL EAST TENNESSEE

CITY           SKY/WX    TMP DP  RH WIND       PRES   REMARKS
KNOXVILLE      PTCLDY    64  60  87 W5        29.99F
OAK RIDGE      MOCLDY    64  62  93 CALM      30.01F
GATLINBURG     MOSUNNY   59  57  94 CALM      30.00S
$$

TNZ083-085-099-211000-
SOUTHEAST TENNESSEE

CITY           SKY/WX    TMP DP  RH WIND       PRES   REMARKS
CHATTANOOGA    CLEAR     64  60  87 CALM      30.01F
$$

SKY/WX REPORTED AS FAIR MEANS FEW OR NO CLOUDS BELOW
12 THOUSAND FEET.




USA.gov is the U.S. government's official web portal to all federal, state and local government web resources and services.